ONEWEB-0061 (45428 NORAD) Tracking and Keplerian Element Data

This shows tracking and keplerian element data for the satellite.

Feedback or suggestion? Click here.




ElementValue
Catalog45428
NameONEWEB-0061
Epoch Orbit186
Epoch Day93.91667824
Epoch Year2020
RAAN134.5811
Inclination87.4011
Eccentricity0.0025094
Argument of Perigee252.7614
Mean Anonmoly357.0062
Mean Motion15.38353609
Decay Rate0.00041819
L11 45428U 20020E 20093.91667824 .00041819 00000-0 10901-2 0 9990
L22 45428 87.4011 134.5811 0025094 252.7614 357.0062 15.38353609 1867

Live tracking and technical data element details for ONEWEB-0061 (NORAD 45428). ONEWEB-0061 can be tracked NOW for your location showing map with azimuth and elevation plus other details from your city location.

Track the satellite on the map from your city or location and see movement details for azimuth, elevation, latitude, longitude, range, height, and movement on the map or in text.







IsCatalogInMostPopularTable: catalog: 45428, numindb: 3
Update: records affected: 1



GetName: 45428 ONEWEB-0061

Hit Count: updated at: Tue, 07 Apr 2020 17:46:28 GMT